Flag for Norway Weather past 2 weeks in Stange, Norway

Now
59 °F

Cool.


Feels Like: 59 °F
Forecast: 53 / 65 °F
Wind: 1 mph from Northwest

Location: Haugedalshogda

Current Time: Jul 28, 2015 at 6:05:47 PM

Latest Report: Jul 28, 2015 at 5:00 PM


Visibility: N/A

Pressure: 29.57 "Hg

Humidity: 78%

Dew point: 52 °F

Location of StangeLocation

Historic Weather in Stange — Graph

°F

Stange temperature yesterday

Maximum temperature yesterday: 68 °F (at 3:00 PM)
Minimum temperature yesterday: 41 °F (at 4:00 AM)
Average temperature yesterday: 56 °F

Past Weeks' High & Low Weather Summary

 TemperatureHumidityPressure
High71 °F (Jul 13, 4:00 PM)96% (Jul 22, 3:00 AM)30.12 "Hg (Jul 22, 3:00 AM)
Low32 °F (Jul 25, 4:00 AM)37% (Jul 17, 1:00 PM)29.38 "Hg (Jul 26, 7:00 PM)
Average55 °F75%29.72 "Hg
* Reported Jul 13 4:00 PM — Jul 28 4:00 PM, Stange, Weather by CustomWeather, © 2015

Note: Actual official high and low records may vary slightly from our data, if they occured in-between our weather recording intervals... More about our weather records

Advertising

Stange weather history for previous 24 hours

 ConditionsComfort  
Time TempWeatherWind HumidityBarometerVisibility
4:00 PM
Tue, Jul 28
59 °FCool.2 mph73%29.58 "HgN/A
3:00 PM57 °FCool.2 mph75%29.59 "HgN/A
2:00 PM54 °FCool.1 mph87%29.60 "HgN/A
1:00 PM65 °FMild.1 mph50%29.56 "HgN/A
12:00 PM60 °FCool.1 mph65%29.57 "HgN/A
11:00 AM59 °FCool.1 mph68%29.58 "HgN/A
10:00 AM55 °FCool.1 mph78%29.59 "HgN/A
8:00 AM50 °FCool.1 mph88%29.60 "HgN/A
7:00 AM49 °FCool.1 mph91%29.59 "HgN/A
6:00 AM48 °FCool.No wind94%29.59 "HgN/A
5:00 AM47 °FCool.No wind93%29.59 "HgN/A
4:00 AM46 °FCool.No wind94%29.59 "HgN/A
3:00 AM44 °FQuite cool.No wind94%29.59 "HgN/A
2:00 AM42 °FQuite cool.1 mph93%29.59 "HgN/A
1:00 AM43 °FQuite cool.No wind90%29.59 "HgN/A
12:00 AM47 °FCool.1 mph87%29.58 "HgN/A
10:00 PM
Mon, Jul 27
55 °FCool.5 mph75%29.54 "HgN/A
9:00 PM58 °FCool.6 mph68%29.50 "HgN/A
8:00 PM62 °FCool.6 mph60%29.50 "HgN/A
7:00 PM62 °FMild.8 mph58%29.47 "HgN/A
6:00 PM67 °FMild.5 mph41%29.44 "HgN/A
Weather by CustomWeather, © 2015

See weather overviewHow to use our weather pages